Retour au catalogue

STARLINK-30254

ActifCommunicationsVLEO
NORAD 57533·PAYLOAD·🇺🇸 United States

Lancé Aug 8, 2023 depuis Vandenberg Space Force Base

Loading…

Prochains Passages (prochaines 24 heures)

TLE

FraisSource: CelesTrak SupGP

Époque: Sep 14, 2026, 22:26 UTC

1 57533C 23115N   26257.93520833 -.00026235  00000+0 -95046-3 0  2573
2 57533  43.0007 114.4050 0001387 273.5749  50.8570 15.27583644    11

Suivez STARLINK-30254 en temps réel avec AllMySat

Download on the App Store